• In Uzbekistan
  • List of Countries
  • For 7 days
  • Water Temperature
  • Satellite Maps
  • Weather Map
  • Weather Widgets
  • user-avatar
    Login

    Hourly Weather Klagenfurt

    Today, 23 February, Friday

    Time Temperature Precipitation Wind Pressure Humidity
    00:00 -6°C° 0.2 mm 2 mps 685 mmHg 92%
    01:00 -6°C° 0.2 mm 2 mps 685 mmHg 92%
    02:00 -6°C° 0.2 mm 2 mps 684 mmHg 92%
    03:00 -6°C° 0.2 mm 2 mps 684 mmHg 92%
    04:00 -6°C° 0.2 mm 2 mps 684 mmHg 92%
    05:00 -6°C° 0.6 mm 2 mps 684 mmHg 92%
    06:00 -6°C° 0.6 mm 2 mps 684 mmHg 92%
    07:00 -6°C° 0.6 mm 2 mps 684 mmHg 92%
    08:00 -5°C° 0.5 mm 2 mps 684 mmHg 91%
    09:00 -4°C° 0.5 mm 2 mps 684 mmHg 90%
    10:00 -3°C° 0.5 mm 2 mps 684 mmHg 89%
    11:00 -2°C° 0.2 mm 2 mps 684 mmHg 88%
    12:00 -2°C° 0.2 mm 2 mps 684 mmHg 88%
    13:00 -1°C° 0.2 mm 2 mps 684 mmHg 87%
    14:00 -1°C° 0.1 mm 2 mps 684 mmHg 88%
    15:00 -1°C° 0.1 mm 2 mps 684 mmHg 88%
    16:00 -1°C° 0.1 mm 2 mps 684 mmHg 89%
    17:00 -2°C° 0.1 mm 2 mps 684 mmHg 90%
    18:00 -3°C° 0.1 mm 2 mps 685 mmHg 92%
    19:00 -3°C° 0.1 mm 2 mps 685 mmHg 93%
    20:00 -4°C° 0.1 mm 2 mps 685 mmHg 93%
    21:00 -4°C° 0.1 mm 2 mps 685 mmHg 93%
    22:00 -4°C° 0.1 mm 2 mps 685 mmHg 93%
    23:00 -4°C° 0.1 mm 2 mps 685 mmHg 93%

    Tomorrow, 24 February, Saturday

    Time Temperature Precipitation Wind Pressure Humidity
    00:00 -4°C° 0.1 mm 2 mps 685 mmHg 93%
    01:00 -2°C° 0.1 mm 1 mps 686 mmHg 92%
    02:00 -2°C° 0 mm 1 mps 685 mmHg 92%
    03:00 -2°C° 0 mm 1 mps 685 mmHg 92%
    04:00 -2°C° 0 mm 1 mps 685 mmHg 92%
    05:00 -2°C° 0 mm 1 mps 685 mmHg 92%
    06:00 -5°C° 0 mm 2 mps 685 mmHg 93%
    07:00 -5°C° 0 mm 2 mps 685 mmHg 93%
    08:00 -4°C° 0 mm 2 mps 685 mmHg 91%
    09:00 -3°C° 0 mm 2 mps 686 mmHg 89%
    10:00 -1°C° 0 mm 2 mps 686 mmHg 88%
    11:00 -1°C° 0 mm 2 mps 686 mmHg 88%
    12:00 +1°C° 0 mm 2 mps 686 mmHg 87%
    13:00 +1°C° 0 mm 2 mps 686 mmHg 87%
    14:00 +1°C° 0 mm 2 mps 686 mmHg 87%
    15:00 -1°C° 0 mm 3 mps 686 mmHg 87%
    16:00 -1°C° 0 mm 3 mps 686 mmHg 86%
    17:00 -3°C° 0.1 mm 2 mps 686 mmHg 88%
    18:00 -4°C° 0.1 mm 2 mps 686 mmHg 89%
    19:00 -5°C° 0.1 mm 2 mps 686 mmHg 91%
    20:00 -6°C° 0.1 mm 2 mps 687 mmHg 90%
    21:00 -7°C° 0.1 mm 2 mps 687 mmHg 90%
    22:00 -8°C° 0.1 mm 2 mps 687 mmHg 90%
    23:00 -8°C° 0 mm 2 mps 687 mmHg 89%

    Day after tomorrow, 25 February, Sunday

    Time Temperature Precipitation Wind Pressure Humidity
    00:00 -9°C° 0 mm 2 mps 687 mmHg 89%
    01:00 -10°C° 0 mm 2 mps 687 mmHg 88%
    02:00 -10°C° 0 mm 2 mps 687 mmHg 88%
    03:00 -12°C° 0 mm 2 mps 687 mmHg 87%
    04:00 -12°C° 0 mm 2 mps 687 mmHg 86%
    05:00 -12°C° 0 mm 2 mps 687 mmHg 86%
    06:00 -13°C° 0 mm 2 mps 687 mmHg 85%
    07:00 -13°C° 0 mm 2 mps 687 mmHg 84%
    08:00 -13°C° 0 mm 3 mps 688 mmHg 80%
    09:00 -12°C° 0 mm 3 mps 688 mmHg 76%
    10:00 -12°C° 0 mm 3 mps 688 mmHg 72%
    11:00 -10°C° 0 mm 3 mps 688 mmHg 70%
    12:00 -9°C° 0 mm 3 mps 688 mmHg 69%
    13:00 -8°C° 0 mm 3 mps 688 mmHg 67%
    14:00 -9°C° 0 mm 3 mps 687 mmHg 69%
    15:00 -9°C° 0 mm 3 mps 687 mmHg 70%
    16:00 -10°C° 0 mm 4 mps 687 mmHg 72%
    17:00 -10°C° 0 mm 3 mps 687 mmHg 76%
    18:00 -13°C° 0 mm 3 mps 687 mmHg 80%
    19:00 -14°C° 0 mm 3 mps 687 mmHg 83%
    20:00 -14°C° 0 mm 3 mps 687 mmHg 84%
    21:00 -15°C° 0 mm 3 mps 687 mmHg 84%
    22:00 -15°C° 0 mm 3 mps 687 mmHg 84%
    23:00 -15°C° 0 mm 3 mps 687 mmHg 84%

    26 February, Monday

    Time Temperature Precipitation Wind Pressure Humidity
    00:00 -15°C° 0 mm 2 mps 687 mmHg 84%
    01:00 -15°C° 0 mm 2 mps 687 mmHg 85%
    02:00 -15°C° 0 mm 2 mps 686 mmHg 85%
    03:00 -16°C° 0 mm 2 mps 686 mmHg 85%
    04:00 -16°C° 0 mm 2 mps 685 mmHg 85%
    05:00 -16°C° 0 mm 2 mps 685 mmHg 84%
    06:00 -17°C° 0 mm 3 mps 685 mmHg 84%
    07:00 -17°C° 0 mm 3 mps 685 mmHg 83%
    08:00 -16°C° 0 mm 3 mps 685 mmHg 78%
    09:00 -14°C° 0 mm 3 mps 685 mmHg 73%
    10:00 -14°C° 0 mm 4 mps 685 mmHg 68%
    11:00 -12°C° 0 mm 4 mps 685 mmHg 67%
    12:00 -12°C° 0 mm 4 mps 685 mmHg 66%
    13:00 -11°C° 0 mm 4 mps 685 mmHg 65%
    14:00 -11°C° 0.1 mm 4 mps 684 mmHg 67%
    15:00 -11°C° 0.1 mm 4 mps 684 mmHg 69%
    16:00 -11°C° 0.1 mm 4 mps 684 mmHg 72%
    17:00 -12°C° 0.1 mm 3 mps 684 mmHg 75%
    18:00 -13°C° 0.1 mm 3 mps 684 mmHg 79%
    19:00 -12°C° 0.1 mm 2 mps 684 mmHg 82%
    20:00 -13°C° 0.1 mm 2 mps 684 mmHg 82%
    21:00 -13°C° 0.1 mm 2 mps 684 mmHg 82%
    22:00 -13°C° 0.1 mm 2 mps 684 mmHg 82%
    23:00 -14°C° 0 mm 2 mps 684 mmHg 82%

    27 February, Tuesday

    Time Temperature Precipitation Wind Pressure Humidity
    00:00 -14°C° 0 mm 2 mps 684 mmHg 82%
    01:00 -14°C° 0 mm 2 mps 684 mmHg 82%
    02:00 -15°C° 0 mm 2 mps 683 mmHg 82%
    03:00 -13°C° 0 mm 1 mps 683 mmHg 82%
    04:00 -13°C° 0 mm 1 mps 683 mmHg 83%
    05:00 -14°C° 0 mm 1 mps 683 mmHg 83%
    06:00 -14°C° 0 mm 1 mps 682 mmHg 83%
    07:00 -14°C° 0 mm 1 mps 682 mmHg 83%
    08:00 -13°C° 0 mm 1 mps 682 mmHg 78%
    09:00 -11°C° 0 mm 1 mps 683 mmHg 72%
    10:00 -12°C° 0 mm 2 mps 683 mmHg 67%
    11:00 -9°C° 0 mm 1 mps 683 mmHg 65%
    12:00 -8°C° 0 mm 1 mps 683 mmHg 63%
    13:00 -7°C° 0 mm 1 mps 683 mmHg 62%
    14:00 -7°C° 0 mm 1 mps 683 mmHg 64%
    15:00 -7°C° 0 mm 1 mps 683 mmHg 66%
    16:00 -7°C° 0 mm 1 mps 683 mmHg 68%
    17:00 -9°C° 0 mm 1 mps 683 mmHg 74%
    18:00 -10°C° 0 mm 1 mps 683 mmHg 80%
    19:00 -11°C° 0 mm 1 mps 683 mmHg 86%
    20:00 -11°C° 0 mm 1 mps 683 mmHg 87%
    21:00 -12°C° 0 mm 1 mps 683 mmHg 88%
    22:00 -12°C° 0 mm 1 mps 684 mmHg 89%
    23:00 -13°C° 0 mm 1 mps 684 mmHg 89%

    28 February, Wednesday

    Time Temperature Precipitation Wind Pressure Humidity
    00:00 -13°C° 0 mm 1 mps 684 mmHg 89%
    01:00 -14°C° 0 mm 1 mps 684 mmHg 88%
    02:00 -14°C° 0 mm 1 mps 683 mmHg 88%
    03:00 -14°C° 0 mm 1 mps 683 mmHg 87%
    04:00 -15°C° 0 mm 1 mps 683 mmHg 86%
    05:00 -15°C° 0 mm 1 mps 683 mmHg 86%
    06:00 -15°C° 0 mm 1 mps 683 mmHg 85%
    07:00 -16°C° 0 mm 1 mps 683 mmHg 85%
    08:00 -13°C° 0 mm 1 mps 684 mmHg 79%
    09:00 -11°C° 0 mm 1 mps 684 mmHg 74%
    10:00 -9°C° 0 mm 1 mps 685 mmHg 69%
    11:00 -8°C° 0 mm 1 mps 685 mmHg 68%
    12:00 -7°C° 0 mm 1 mps 685 mmHg 67%
    13:00 -6°C° 0 mm 1 mps 684 mmHg 66%
    14:00 -6°C° 0 mm 1 mps 684 mmHg 69%
    15:00 -6°C° 0 mm 1 mps 684 mmHg 71%
    16:00 -6°C° 0 mm 1 mps 684 mmHg 74%
    17:00 -7°C° 0.1 mm 1 mps 684 mmHg 79%
    18:00 -9°C° 0.1 mm 1 mps 684 mmHg 85%
    19:00 -10°C° 0.1 mm 1 mps 684 mmHg 90%
    20:00 -10°C° 0.1 mm 1 mps 684 mmHg 90%
    21:00 -10°C° 0.1 mm 1 mps 684 mmHg 90%
    22:00 -10°C° 0.1 mm 1 mps 684 mmHg 90%
    23:00 -10°C° 0.2 mm 1 mps 684 mmHg 90%
    Show more